Simultaneous Nadir Overpasses (SNOs) Predictions

Prediction of SNOs between GOES-15 and TERRA Satellite Orbit:

Table of predicted SNOs for the next 14.0 days since TLE Epoch: 9/10/2016
Index Date Time (GOES-15) GOES-15 Lat,Lon TERRA Lat,Lon Distance(km) Time Diff (sec)
1 09/10/2016 07:25:05 0.29,-135.42 0.73,-133.42 228.23 80
2 09/10/2016 19:43:40 -0.31,-135.45 0.38,-138.57 355.38 80
3 09/12/2016 19:31:27 -0.30,-135.46 -0.28,-135.61 16.98 80
4 09/14/2016 19:21:53 -0.30,-135.47 -0.87,-132.64 320.71 80
5 09/15/2016 07:43:17 0.31,-135.45 -0.21,-137.84 271.80 80
6 09/17/2016 07:31:04 0.31,-135.45 0.44,-134.88 65.05 80
7 09/19/2016 07:16:52 0.31,-135.44 1.04,-131.91 401.19 38
8 09/19/2016 19:37:26 -0.32,-135.45 0.01,-137.07 183.91 80
9 09/21/2016 19:27:52
